Regional Weather Roundup
Issued by NWS Grand Forks, ND

Home | Current Version | Previous Version | Graphics & Text | Print | Product List | Glossary On
Versions: 1 2 3 4 5 6 7 8 9 10 11 12 13 14 15 16 17 18 19 20 21 22 23 24 25 26 27 28 29 30 31 32 33 34 35 36 37 38 39 40 41 42 43 44 45 46 47 48 49 50
000
ASUS43 KFGF 202231
RWRFGF
PRAIRIE TO PINES  WEATHER ROUNDUP
NATIONAL WEATHER SERVICE EASTERN NORTH DAKOTA/GRAND FORKS ND
500 PM CDT MON OCT 20 2014

 **SATELLITE DATA USED TO AUGMENT SKY COVER AT AUTOMATED STATIONS**
 *****  WEATHER ACROSS EASTERN NORTH DAKOTA  *****

CITY           SKY/WX    TMP DP  RH WIND       PRES   REMARKS
GRAND FORKS    SUNNY     59  42  53 E3        30.02F
GRAND FRKS AFB SUNNY     59  44  56 SE5       30.03S
GRAND FRKS NWS   N/A     55 N/A N/A SE1         N/A
DEVILS LAKE    SUNNY     64  43  45 SE7       29.98S
FARGO          SUNNY     63  43  48 NE7       30.02F
WAHPETON ARPT  CLEAR     63  36  36 N7        30.03S
$$

 ***** WEATHER ACROSS CENTRAL AND WESTERN NORTH DAKOTA  *****

CITY           SKY/WX    TMP DP  RH WIND       PRES   REMARKS
BISMARCK       SUNNY     72  34  24 S17       29.96F
MINOT          SUNNY     71  36  27 SE13G21   29.91F
JAMESTOWN      SUNNY     68  38  33 SE6       29.99F
MINOT AFB      SUNNY     70  38  31 S14       29.90F
GARRISON         N/A     71  41  33 S13       29.92F
WILLISTON      SUNNY     77  41  27 S8        29.83F
DICKINSON      SUNNY     72  42  34 S17G28    29.89S
HETTINGER      SUNNY     73  40  30 SE16      29.93F
$$

 *****  OTHER AIRPORT OBSERVATIONS IN OUR AREA  *****

CITY           SKY/WX    TMP DP  RH WIND       PRES   REMARKS
WALHALLA         N/A     55  45  67 SE10      30.02S
GRAFTON AIRPOR FAIR      57  41  54 E6        30.03S
VALLEY CITY AR FAIR      66  41  39 SE6       30.01F
CANDO          FAIR      64  41  42 SE9       29.98F
CAVALIER APRT  FAIR      57  43  58 S6        30.03S
GWINNER        CLEAR     70  43  37 E3        30.03S
SHEYENNE NWR     N/A     67  40  37 NE3       29.95S
ROLLA          FAIR      66  36  32 S12       29.98S
 ***** THE ABOVE OBSERVATIONS ARE NON NWS ARE NOT QUALITY
       CONTROLLED AND MAY MIS-REPORT RAIN FOR SNOW...
$$

  *****  WEATHER ACROSS NORTHERN MINNESOTA  *****

CITY           SKY/WX    TMP DP  RH WIND       PRES   REMARKS
FLAG ISLAND    SUNNY     48  36  61 NE3       30.05S
WARROAD        SUNNY     48  39  71 E5        30.07R
ROSEAU         SUNNY     52  39  62 S3        30.06R
HALLOCK        SUNNY     57  41  54 SE3       30.04S
THF RVR FALLS  SUNNY     54  37  54 CALM      30.05R
BAUDETTE       SUNNY     48  37  65 NW7       30.06R
WASKISH        SUNNY     48  39  71 CALM      30.06R
CROOKSTON      SUNNY     57  41  54 E3        30.04S
STEPHEN NDAWN    N/A     57  43  58 SE3         N/A
GREENBUSH NDAW   N/A     54  39  58 SE3         N/A
$$
  *****  WEATHER ACROSS CENTRAL AND WEST MINNESOTA  *****

CITY           SKY/WX    TMP DP  RH WIND       PRES   REMARKS
FOSSTON        SUNNY     57  39  51 CALM      30.05R
BEMIDJI        SUNNY     51  38  62 NE5       30.04S
PARK RAPIDS    SUNNY     59  34  39 NW8       30.02R
ELBOW LAKE     FAIR      61  40  46 N8        30.03R
WADENA         SUNNY     59  39  47 NW7       30.02S
DETROIT LAKES  SUNNY     59  39  47 N6        30.04S
MOORHEAD       SUNNY     63  43  48 N5        30.04S
FERGUS FALLS   SUNNY     63  36  36 N7        30.04R
MORRIS MN      SUNNY     64  39  39 N9        30.02R
STAPLES        SUNNY     59  32  36 N7        30.02R
$$
  *****  WEATHER ELSEWHERE ACROSS MINNESOTA  *****

CITY           SKY/WX    TMP DP  RH WIND       PRES   REMARKS
DULUTH         CLOUDY    48  38  68 N9        30.02R
INTRNTL FALLS  CLOUDY    46  36  68 N7        30.06R
ELY            CLOUDY    45  36  70 NW6       30.04R
CLOQUET        CLOUDY    48  37  66 N7        30.04R
WHEATON        SUNNY     64  39  39 N6        30.04R
BRAINERD       SUNNY     55  39  54 N8        30.02S
HIBBING        CLOUDY    49  36  61 NE7       30.03S
ALEXANDRIA     SUNNY     62  36  37 N10       30.03R
SAINT CLOUD    SUNNY     65  40  39 N7        30.01R
MINNEAPOLIS    SUNNY     62  41  46 W13       29.99R
$$

  *****  WEATHER ACROSS SOUTH DAKOTA  *****

CITY           SKY/WX    TMP DP  RH WIND       PRES   REMARKS
SIOUX FALLS    SUNNY     69  38  32 W7        30.04S
BROOKINGS      NOT AVBL
WATERTOWN      SUNNY     68  36  30 W6        30.03F
HURON          SUNNY     71  32  23 E5        30.02F
SISSETON         N/A     69  39  33 N6        30.01S
ABERDEEN       SUNNY     72  35  25 S5        30.02F
MITCHELL       SUNNY     71  35  26 SE5       30.03F
PIERRE         SUNNY     75  39  27 SE15      29.96F
MOBRIDGE       SUNNY     73  34  23 SE14      29.95F
RAPID CITY     SUNNY     77  45  32 S16       29.92F
$$

  *****  SOME WEATHER IN NEARBY STATES *****

CITY           SKY/WX    TMP DP  RH WIND       PRES   REMARKS
GLASGOW MT     SUNNY     74  42  31 SE13      29.77F
GREAT FALLS MT SUNNY     78  30  17 SW17      29.77S
CHEYENNE WY    SUNNY     70  34  26 S13       30.12S
SCOTTSBLUFF NE SUNNY     80  38  22 S15G22    29.99F
OMAHA NE       SUNNY     72  37  28 W5        30.04S
DES MOINES IA  MOSUNNY   71  38  29 NW9G18    30.00S
DAVENPORT IA   MOSUNNY   67  40  37 NW15      29.94R
CHICAGO IL     PTSUNNY   56  47  71 NE10      29.91R
EAU CLAIRE WI  SUNNY     56  38  50 N12       29.99R
LA CROSSE WI   MOSUNNY   63  42  46 N7        29.95R
$$

  *****  SOME NATIONAL WEATHER *****

CITY           SKY/WX    TMP DP  RH WIND       PRES   REMARKS
LA GUARDIA NY  MOCLDY    60  36  40 SW12      29.97S
RALEIGH NC     PTCLDY    66  46  48 W6        29.99S
ATLANTA GA     MOSUNNY   71  49  45 W7        30.00S
NEW ORLEANS LA MOSUNNY   77  49  37 N8        29.99S
OKLAHOMA CITY  MOSUNNY   81  60  48 SE5       30.01S
ALBUQUERQUE NM TSTM      56  50  80 NE13      30.16R
SALT LAKE CITY MOSUNNY   79  35  20 S15       29.94F
LOS ANGELES CA MOSUNNY   71  61  70 W15       29.89F
BOISE ID       SUNNY     76  38  25 N6        29.76F
SEATTLE WA     CLOUDY    61  55  81 S8        29.77S
$$

*** WEATHER ACROSS MANITOBA...SASKATCHEWAN AND ONTARIO ***
                ***ONTARIO***

CITY           SKY/WX    TMP DP  RH WIND       PRES   REMARKS
GERALDTON      DRIZZLE   36  34  93 N5        30.03R
THUNDER BAY    MOCLDY    45  36  70 N8G17     30.03R
SIOUX LOOKOUT  CLOUDY    41  34  75 N5        30.08R
TORONTO        LGT RAIN  52  50  93 S3        29.78S FOG
BIG TROUT LK   CLOUDY    34  30  86 NW5       30.14
PICKLE LAKE    DRIZZLE   36  34  93 N6        30.11R
DRYDEN         CLOUDY    41  34  75 NE7       30.07R
KENORA         MOSUNNY   46  36  66 E6        30.06S
$$
                *** MANITOBA***

CITY           SKY/WX    TMP DP  RH WIND       PRES   REMARKS
BRANDON        MOSUNNY   64  45  48 E12       29.95F
DAUPHIN        SUNNY     52  45  76 SE14G20   29.92F
ISLAND LAKE    CLOUDY    39  32  75 SE7       30.09F
PILOT MOUND      N/A     66  37  34 S10         N/A
THE PAS        MOSUNNY   48  41  76 SE17G29   29.84F
THOMPSON       CLOUDY    36  36 100 SE9       30.00F
WINNIPEG       SUNNY     54  39  58 SE6       30.05
LYNN LAKE      CLOUDY    37  36  93 SE16G24   29.83F
CHURCHILL      MOCLDY    37  34  87 SE6       30.07F
GILLAM         CLOUDY    37  32  81 SW7       30.09
$$
                ***SASKATCHEWAN***

CITY           SKY/WX    TMP DP  RH WIND       PRES   REMARKS
ESTEVAN        MOSUNNY   72  41  33 S17       29.84F
KINDERSLEY     SUNNY     73  36  25 SW12G18   29.65S
LLOYDMINSTER   MOSUNNY   70  36  28 S9        29.58
PRINCE ALBERT  MOSUNNY   68  45  42 S10       29.64F
REGINA         MOSUNNY   73  45  35 S14G23    29.77S
YORKTON        SUNNY     68  41  37 SE15G21   29.81S
N. BATTLEFORD  SUNNY     73  36  25 SW13      29.62S
LA RONGE       MOSUNNY   59  43  55 SE14G22   29.62F
SASKATOON      SUNNY     75  39  27 S14       29.67
SWIFT CURRENT  SUNNY     75  32  20 SW17G23   29.71S
$$
NOTE: THESE ARE AUTOMATED STATIONS WITH LIMITED QUALITY CONTROL
      "FAIR" INDICATES FEW OR NO CLOUDS BELOW 12,000 FEET WITH NO
      SIGNIFICANT WEATHER AND/OR OBSTRUCTIONS TO VISIBILITY.
      SKY/WX - SKY CONDITION AND SIGNIFICANT WEATHER.
      TMP - AIR TEMPERATURE.    DP   - DEWPOINT TEMPERATURE.
      RH  - RELATIVE HUMIDITY.  PRES - PRESSURE.
      HX  - HEAT INDEX.         WCI  - WIND CHILL INDEX.
$



USA.gov is the U.S. government's official web portal to all federal, state and local government web resources and services.